Date,TemperatureHighF,TemperatureAvgF,TemperatureLowF,DewpointHighF,DewpointAvgF,DewpointLowF,HumidityHigh,HumidityAvg,HumidityLow,PressureMaxIn,PressureMinIn,WindSpeedMaxMPH,WindSpeedAvgMPH,GustSpeedMaxMPH,PrecipitationSumIn
2013-1-1,69.1,59.2,49.5,66.7,58.0,48.5,99,96,91,29.99,29.75,19,8,19,1.04
2013-1-2,49.6,44.7,42.3,48.5,42.1,38.3,98,91,84,30.12,29.95,20,8,20,0.05
2013-1-3,54.0,43.5,39.4,38.4,36.5,34.4,90,77,52,30.22,30.08,21,8,21,0.01
2013-1-4,56.5,47.1,39.2,38.0,33.8,26.0,80,62,33,30.32,30.17,12,5,12,0.00
2013-1-5,50.5,47.0,44.1,44.7,40.9,36.5,98,80,63,30.19,30.06,11,5,11,0.28
2013-1-6,57.9,48.6,44.2,48.0,44.9,42.6,98,88,68,30.14,30.03,14,6,14,0.60
2013-1-7,63.1,52.0,39.9,45.6,42.6,39.7,99,72,47,30.14,29.99,10,2,10,0.00
2013-1-8,62.4,58.0,52.5,61.9,55.4,44.8,99,91,72,30.00,29.85,16,5,16,1.65
2013-1-9,70.2,65.7,61.9,69.6,65.3,61.3,99,99,97,29.98,29.85,17,5,17,2.27
2013-1-10,71.8,65.8,63.0,70.9,65.3,62.1,99,98,97,29.95,29.79,22,4,22,2.48
2013-1-11,71.8,66.2,60.3,70.9,63.8,57.8,99,92,69,29.92,29.80,9,3,9,0.04
2013-1-12,77.9,73.0,70.2,73.0,71.2,69.6,98,94,83,29.85,29.68,15,5,15,0.00
2013-1-13,73.9,61.1,46.8,72.8,60.3,46.5,99,97,86,29.95,29.61,27,8,27,0.28
2013-1-14,46.9,42.7,38.1,46.5,41.9,36.2,99,97,91,30.00,29.87,25,9,25,0.25
2013-1-15,41.9,39.6,36.5,41.5,39.1,35.7,99,98,95,29.93,29.82,20,8,20,0.32
2013-1-16,40.3,37.4,35.6,39.6,36.7,34.8,99,97,93,30.07,29.89,17,8,20,0.11
2013-1-17,58.8,43.9,34.2,39.3,34.5,28.7,99,73,41,30.31,30.06,18,5,18,0.01
2013-1-18,62.8,46.1,33.3,41.1,34.1,23.8,99,70,26,30.38,30.23,11,2,11,0.01
2013-1-19,67.5,51.5,35.8,51.2,43.5,34.3,99,77,47,30.23,30.06,11,2,11,0.00
2013-1-20,70.3,52.7,37.4,50.5,44.4,37.1,99,77,39,30.12,29.98,9,2,9,0.02
2013-1-21,72.0,56.0,44.2,53.9,47.0,42.1,99,76,38,30.08,29.98,11,2,11,0.00
2013-1-22,72.3,54.8,41.4,50.8,45.8,39.8,99,75,42,30.19,30.06,9,2,9,0.00
2013-1-23,76.1,58.8,42.6,58.1,52.0,42.3,99,81,47,30.23,30.11,11,2,11,0.00
2013-1-24,77.2,63.6,52.0,63.9,58.5,51.4,99,85,60,30.17,30.05,13,2,13,0.00
2013-1-25,79.0,65.2,55.9,63.9,59.8,55.7,99,85,55,30.07,29.96,16,3,16,0.00
2013-1-26,81.9,64.6,55.2,70.0,59.5,54.4,99,85,47,30.07,29.99,11,2,11,0.01
2013-1-27,80.1,67.7,57.7,65.0,61.8,57.5,99,83,55,30.06,29.98,16,5,16,0.01
2013-1-28,77.4,69.5,64.4,69.4,66.4,63.3,97,90,73,30.05,29.91,16,4,16,0.00
2013-1-29,79.5,72.7,67.6,72.7,70.3,67.4,99,92,78,29.91,29.57,20,7,21,0.00
2013-1-30,73.4,57.1,39.6,71.3,44.5,30.3,99,67,32,30.05,29.52,30,9,30,0.51
2013-1-31,64.2,49.6,35.1,45.4,33.7,20.5,99,62,20,30.19,30.05,12,2,12,0.00
2013-2-1,70.9,54.6,44.4,48.0,42.3,37.8,98,67,32,30.25,30.14,11,2,11,0.02
2013-2-2,76.3,58.8,43.5,56.0,50.7,43.0,99,78,45,30.16,30.02,18,2,18,0.01
2013-2-3,74.8,58.9,47.5,57.1,43.6,25.8,99,65,19,30.14,29.94,12,2,12,0.01
2013-2-4,71.8,59.0,47.5,57.8,52.3,43.2,98,80,52,29.95,29.76,9,3,9,0.00
2013-2-5,75.6,62.2,56.5,65.5,60.0,56.2,99,93,69,29.87,29.76,8,2,8,0.11
2013-2-6,70.0,60.8,53.6,65.3,59.2,52.8,99,95,79,29.94,29.77,12,3,12,0.32
2013-2-7,73.8,62.1,56.8,62.9,59.8,8.9,99,93,67,29.82,29.67,20,4,20,0.50
2013-2-8,69.4,60.7,52.0,61.6,57.2,49.6,99,89,72,30.00,29.79,18,5,18,0.02
2013-2-9,70.5,60.8,52.0,61.9,56.0,50.2,95,85,66,30.03,29.81,16,6,16,0.00
2013-2-10,79.0,71.7,63.3,73.4,69.5,61.9,99,93,81,29.81,29.69,20,6,20,0.09
2013-2-11,70.0,58.7,55.2,69.4,58.2,54.4,99,98,94,29.99,29.80,21,6,21,1.39
2013-2-12,74.7,61.6,55.4,73.4,60.6,53.5,99,97,89,29.85,29.57,21,6,21,0.05
2013-2-13,60.4,52.2,41.4,54.2,46.5,40.6,99,82,55,29.93,29.74,17,5,17,0.02
2013-2-14,63.7,49.9,38.3,49.7,41.0,37.2,99,75,42,30.02,29.91,14,2,14,0.00
2013-2-15,68.5,53.7,37.6,50.7,41.7,37.3,99,68,35,30.08,29.94,21,4,21,0.00
2013-2-16,57.0,47.7,37.4,43.8,28.9,17.7,84,51,24,30.22,30.08,23,8,23,0.00
2013-2-17,67.8,51.5,34.5,47.7,39.9,30.8,89,68,36,30.17,30.03,14,3,14,0.00
2013-2-18,73.4,62.5,50.0,66.1,56.8,46.3,99,83,57,30.04,29.76,27,7,27,0.37
2013-2-19,67.8,58.4,48.0,64.5,42.9,26.1,99,61,23,30.10,29.82,21,7,21,0.05
2013-2-20,65.3,54.3,45.5,38.1,32.7,24.3,62,45,32,30.08,29.83,21,7,21,0.00
2013-2-21,72.9,65.6,55.8,71.1,59.3,33.8,98,81,43,29.83,29.56,23,9,23,0.05
2013-2-22,69.3,63.7,58.5,65.0,54.9,45.8,99,75,45,29.82,29.69,13,5,14,0.00
2013-2-23,69.8,57.6,51.1,54.1,51.6,46.8,97,81,57,29.83,29.71,16,5,16,0.00
2013-2-24,77.0,60.1,45.5,61.1,52.5,44.5,99,79,44,29.83,29.55,17,4,17,0.37
2013-2-25,71.1,64.4,53.4,70.5,59.9,33.8,99,88,42,29.56,29.26,27,7,27,0.69
2013-2-26,64.8,53.0,45.0,46.9,39.6,34.8,89,61,41,29.79,29.48,27,9,27,0.00
2013-2-27,72.3,58.5,45.7,53.9,45.4,38.6,95,65,31,29.95,29.78,19,4,19,0.00
2013-2-28,52.7,47.8,42.6,41.5,35.7,31.1,87,64,46,30.06,29.94,17,5,17,0.00
2013-3-1,61.5,49.7,39.9,40.4,34.5,23.8,87,60,25,30.06,29.95,22,6,22,0.00
2013-3-2,48.7,42.0,33.4,37.4,30.7,24.9,93,66,44,30.13,30.02,24,6,24,0.00
2013-3-3,64.4,46.5,29.3,42.4,31.8,23.9,98,63,22,30.16,29.95,12,2,12,0.00
2013-3-4,76.3,61.9,45.5,62.4,54.9,42.1,99,80,53,29.96,29.73,22,5,22,0.00
2013-3-5,73.4,65.2,52.5,66.2,51.0,32.2,97,65,24,30.11,29.73,27,8,27,0.00
2013-3-6,65.1,52.1,39.0,37.3,28.8,22.3,70,43,21,30.23,30.09,17,5,17,0.00
2013-3-7,72.9,53.5,37.4,43.8,34.7,27.2,90,55,20,30.20,30.08,10,2,10,0.01
2013-3-8,77.4,58.4,41.7,55.3,44.8,33.4,99,68,23,30.15,29.98,10,2,10,0.01
2013-3-9,74.8,64.4,54.5,64.3,58.9,50.2,90,82,69,29.99,29.74,17,5,17,0.00
2013-3-10,79.0,66.5,54.3,68.8,63.3,53.5,99,90,69,29.83,29.67,19,6,19,0.71
2013-3-11,61.2,52.3,44.6,54.0,40.6,32.8,97,67,36,29.92,29.78,24,8,24,0.18
2013-3-12,68.7,53.4,38.1,46.8,38.6,32.8,99,64,28,30.10,29.92,15,3,15,0.00
2013-3-13,70.2,56.6,43.7,43.9,36.0,20.3,96,53,17,30.29,30.10,21,4,21,0.00
2013-3-14,48.0,44.6,42.1,39.1,37.6,36.1,84,76,66,30.24,30.23,1,0,1,0.00
2013-3-15,78.8,61.7,45.3,57.8,50.6,41.4,99,73,27,30.17,29.98,9,2,9,0.00
2013-3-16,81.0,66.3,53.8,64.1,57.7,52.9,99,78,42,29.98,29.78,14,3,14,0.01
2013-3-17,81.3,69.3,60.6,69.2,64.7,60.2,99,87,56,29.80,29.64,9,3,9,0.00
2013-3-18,70.2,70.0,69.8,69.6,69.4,69.2,98,98,98,29.66,29.65,8,3,8,0.00
2013-3-20,67.6,58.0,48.2,62.8,42.2,27.2,98,60,23,29.85,29.57,21,8,21,0.05
2013-3-21,65.3,54.5,45.5,38.1,32.6,24.9,61,44,31,29.83,29.55,19,7,19,0.00
2013-3-22,72.9,65.8,55.8,71.0,59.8,34.7,98,82,45,29.56,29.31,20,9,20,0.06
2013-3-23,69.3,63.6,58.1,65.0,54.7,45.8,99,75,45,29.57,29.44,14,5,14,0.00
2013-3-24,69.8,57.5,50.9,53.9,51.4,46.8,97,81,57,29.58,29.46,14,5,14,0.00
2013-3-25,77.0,60.2,45.3,61.1,52.8,44.5,99,79,44,29.57,29.27,14,4,14,0.37
2013-3-26,71.2,58.5,41.2,70.3,51.5,23.2,99,81,29,29.97,29.01,17,4,17,0.69
2013-3-27,70.7,52.1,37.4,40.3,31.6,22.4,83,52,17,30.04,29.84,13,2,13,0.00
2013-3-28,78.4,57.9,39.9,53.3,44.4,38.8,99,67,28,29.94,29.81,10,2,10,0.04
2013-3-29,83.1,65.2,47.3,60.2,49.9,33.1,99,67,19,29.89,29.75,9,2,9,0.04
2013-3-30,81.0,67.3,57.9,65.2,61.3,57.7,99,83,48,29.78,29.61,11,2,11,0.00
2013-3-31,84.4,65.8,57.7,69.9,62.9,57.5,99,92,56,29.62,29.49,34,3,34,0.30
2013-4-1,83.8,67.5,55.9,64.5,58.2,54.4,99,76,39,29.67,29.53,14,3,14,0.01
2013-4-2,83.8,69.0,56.1,66.9,59.9,55.9,99,76,44,29.67,29.50,14,3,14,0.06
2013-4-3,65.7,58.1,51.1,65.4,57.6,50.8,99,98,95,29.61,29.30,21,8,21,1.63
2013-4-4,56.3,51.0,48.0,51.0,49.0,46.3,99,93,80,29.67,29.51,17,8,17,0.01
2013-4-5,74.1,57.9,46.0,52.4,47.7,43.9,98,72,37,29.77,29.65,20,7,20,0.00
2013-4-6,79.2,63.7,48.7,58.3,53.2,46.2,94,71,44,29.73,29.61,12,3,12,0.00
2013-4-7,83.5,69.8,59.4,66.0,61.9,56.9,99,78,48,29.64,29.51,12,3,13,0.02
2013-4-8,85.5,72.6,62.1,70.1,65.3,61.5,99,80,51,29.55,29.47,16,4,16,0.01
2013-4-9,86.0,77.0,70.0,75.2,72.6,67.6,97,87,68,29.53,29.43,23,6,23,0.00
2013-4-10,84.6,77.5,73.2,75.4,73.6,71.4,95,88,73,29.50,29.34,22,6,22,0.00
2013-4-11,75.4,62.4,51.8,73.9,58.9,51.0,99,89,68,29.44,29.24,21,7,21,0.70
2013-4-12,79.7,61.8,46.0,56.1,48.4,40.0,99,68,26,29.59,29.44,14,3,14,0.00
2013-4-13,84.4,68.5,50.4,56.7,50.7,45.7,96,57,29,29.59,29.42,17,4,17,0.00
2013-4-14,84.6,68.1,57.0,69.7,63.7,54.5,99,88,56,29.45,29.29,21,5,21,1.90
2013-4-15,90.3,75.7,61.7,76.5,70.5,61.1,99,86,54,29.51,29.37,14,2,14,0.01
2013-4-16,90.0,78.6,74.1,77.4,75.1,73.9,99,89,65,29.63,29.49,11,4,11,0.02
2013-4-17,91.2,80.8,72.7,75.7,74.1,71.8,99,82,58,29.60,29.46,21,6,21,0.00
2013-4-18,87.6,75.8,54.1,75.8,71.2,53.3,99,86,66,29.54,29.32,25,7,25,0.32
2013-4-19,59.5,52.9,47.5,53.1,41.8,32.8,98,68,38,29.76,29.54,25,14,25,0.01